Temp
-3 -3 -3 -4 -5 -6 -6 -7 -7 -6 -6 -6 -6 -7 -7 -7 -5 -5 -6 -6 -6 -7 -7 -7 -6 -6 -6 -6 -6 -6 -6 -6 -6 -6 -6 -6 -6 -6 -6 -6 -7 -7 -7 -7
-4 -3 -4 -4 -4 -6 -7 -6 -7 -7 -6 -6 -7 -7 -5 -5 -5 -5 -6 -6 -6 -6 -7 -7 -6 -6 -6 -6 -6 -5 -6 -6 -6 -7 -6 -6 -6 -6 -6 -7 -6 -7 -7 -6
-4 -4 -4 -4 -4 -6 -7 -7 -7 -7 -7 -6 -6 -6 -6 -6 -6 -6 -5 -6 -6 -6 -6 -7 -6 -6 -6 -6 -6 -5 -5 -6 -6 -6 -6 -6 -7 -6 -7 -7 -7 -6 -6 -6
-4 -4 -4 -4 -5 -6 -6 -7 -8 -7 -6 -5 -6 -6 -6 -7 -7 -6 -5 -6 -6 -6 -6 -6 -6 -6 -6 -6 -6 -6 -6 -6 -6 -6 -6 -7 -7 -7 -7 -7 -7 -6 -6 -7
-4 -4 -4 -5 -7 -7 -6 -7 -7 -7 -6 -5 -5 -6 -6 -6 -6 -5 -6 -6 -6 -6 -6 -6 -6 -5 -6 -6 -6 -6 -6 -6 -6 -6 -6 -6 -6 -7 -7 -7 -6 -6 -7 -7
-4 -5 -4 -5 -5 -6 -7 -6 -7 -7 -7 -5 -6 -7 -7 -7 -7 -6 -7 -7 -7 -6 -6 -6 -6 -6 -5 -6 -6 -6 -6 -6 -7 -6 -6 -7 -7 -6 -6 -6 -6 -6 -6 -7
-5 -5 -5 -5 -5 -5 -5 -5 -5 -6 -5 -5 -6 -6 -6 -7 -7 -7 -7 -7 -7 -7 -7 -7 -6 -6 -5 -5 -6 -6 -6 -6 -7 -7 -6 -6 -6 -6 -7 -7 -7 -7 -7 -7
-6 -6 -6 -6 -5 -5 -5 -5 -6 -5 -5 -6 -6 -6 -6 -6 -6 -7 -7 -7 -7 -7 -7 -7 -7 -7 -6 -5 -5 -6 -6 -6 -7 -7 -6 -6 -6 -6 -6 -7 -7 -6 -7 -7
-7 -7 -7 -7 -6 -6 -6 -6 -6 -6 -6 -6 -7 -6 -6 -6 -6 -6 -6 -6 -7 -7 -7 -7 -7 -7 -6 -6 -6 -6 -7 -7 -7 -7 -7 -7 -7 -7 -7 -7 -7 -7 -7 -7
-7 -7 -7 -7 -7 -6 -6 -6 -7 -6 -6 -6 -6 -6 -6 -6 -7 -7 -7 -6 -7 -6 -7 -7 -7 -7 -7 -7 -7 -7 -7 -8 -8 -8 -8 -7 -7 -7 -7 -7 -7 -7 -7 -7
-7 -7 -7 -7 -7 -6 -6 -6 -6 -6 -6 -6 -5 -6 -6 -6 -6 -7 -6 -6 -6 -4 -6 -7 -7 -6 -7 -7 -7 -7 -8 -8 -8 -8 -8 -7 -7 -7 -8 -7 -7 -7 -8 -7
-7 -7 -7 -7 -7 -7 -7 -6 -6 -6 -6 -6 -6 -6 -6 -6 -7 -7 -6 -6 -6 -6 -7 -8 -8 -8 -7 -6 -6 -7 -7 -8 -8 -8 -7 -7 -7 -8 -8 -8 -7 -8 -8 -8
-7 -7 -7 -7 -7 -7 -7 -7 -6 -6 -6 -5 -6 -6 -6 -7 -7 -7 -6 -7 -8 -8 -8 -8 -8 -8 -8 -8 -7 -6 -7 -7 -7 -7 -7 -7 -7 -7 -7 -8 -7 -7 -7 -7
-7 -8 -7 -7 -7 -7 -7 -7 -6 -6 -6 -6 -6 -6 -6 -7 -7 -8 -7 -8 -8 -8 -8 -8 -8 -8 -8 -8 -8 -7 -7 -7 -7 -7 -7 -7 -6 -7 -7 -7 -8 -8 -8 -7
-7 -7 -7 -7 -7 -7 -7 -7 -6 -6 -6 -6 -6 -7 -7 -7 -8 -7 -8 -7 -8 -8 -8 -8 -8 -8 -8 -8 -8 -8 -7 -7 -6 -7 -7 -7 -7 -7 -7 -8 -8 -7 -7 -7
-7 -7 -8 -7 -7 -7 -7 -7 -6 -6 -6 -6 -7 -8 -8 -7 -8 -9 -9 -8 -8 -8 -8 -8 -8 -8 -8 -8 -8 -8 -8 -8 -7 -7 -7 -8 -8 -8 -8 -8 -7 -7 -7 -7
-7 -7 -8 -8 -8 -7 -7 -7 -7 -7 -7 -6 -7 -7 -7 -7 -7 -8 -8 -7 -8 -8 -8 -8 -8 -7 -7 -7 -7 -7 -8 -8 -8 -8 -7 -7 -8 -8 -8 -8 -7 -7 -7 -8
-7 -7 -8 -9 -8 -7 -7 -7 -7 -7 -7 -7 -7 -7 -7 -7 -6 -7 -6 -6 -9 -8 -8 -8 -7 -7 -6 -7 -7 -7 -8 -8 -8 -8 -8 -8 -8 -8 -8 -8 -8 -8 -8 -8
-7 -7 -7 -8 -8 -7 -7 -7 -7 -8 -8 -7 -7 -7 -6 -6 -7 -6 -6 -7 -8 -8 -8 -8 -8 -6 -6 -6 -6 -6 -6 -7 -7 -7 -7 -7 -7 -8 -8 -8 -8 -8 -8 -8
-8 -7 -7 -8 -8 -8 -8 -8 -8 -9 -9 -7 -8 -8 -7 -7 -7 -7 -6 -6 -7 -7 -7 -7 -7 -6 -6 -6 -6 -6 -6 -6 -7 -7 -7 -7 -7 -7 -7 -7 -8 -8 -8 -8
-8 -8 -8 -8 -8 -8 -8 -8 -8 -8 -9 -8 -8 -8 -7 -8 -7 -7 -6 -7 -7 -7 -6 -7 -7 -6 -6 -6 -6 -6 -6 -5 -6 -6 -6 -6 -6 -6 -6 -6 -7 -7 -7 -7
-8 -8 -8 -8 -8 -8 -8 -8 -8 -8 -9 -8 -7 -8 -8 -7 -7 -8 -8 -6 -7 -7 -6 -7 -6 -6 -5 -5 -5 -5 -6 -6 -5 -5 -6 -6 -6 -6 -6 -6 -6 -7 -7 -8
-8 -8 -8 -8 -8 -7 -7 -8 -8 -7 -8 -8 -9 -9 -10 -9 -9 -7 -6 -6 -7 -7 -6 -6 -6 -6 -6 -6 -5 -5 -5 -5 -5 -6 -6 -6 -6 -6 -6 -6 -6 -7 -7 -7
-8 -8 -8 -7 -7 -7 -7 -7 -7 -8 -8 -8 -9 -9 -9 -10 -10 -9 -8 -7 -7 -6 -6 -7 -7 -6 -6 -6 -6 -6 -6 -6 -6 -6 -6 -6 -6 -6 -6 -6 -6 -7 -7 -7
-9 -8 -8 -7 -7 -7 -7 -6 -7 -8 -8 -9 -8 -8 -7 -7 -8 -8 -8 -7 -6 -6 -6 -6 -7 -7 -7 -6 -6 -6 -6 -6 -7 -6 -6 -6 -6 -6 -6 -6 -6 -6 -7 -7
-8 -7 -7 -7 -7 -7 -7 -7 -8 -8 -8 -7 -7 -7 -7 -7 -7 -7 -7 -7 -6 -7 -7 -7 -7 -7 -6 -6 -6 -6 -6 -6 -6 -6 -6 -6 -6 -6 -6 -6 -6 -7 -7 -7
Height
5928 5930 5931 5932 5931 5933 5931 5934 5935 5939 5937 5937 5935 5938 5939 5936 5940 5936 5937 5936 5934 5934 5935 5934 5933 5932 5932 5931 5930 5930 5930 5930 5930 5930 5930 5931 5932 5932 5934 5933 5934 5936 5935 5937
5924 5929 5929 5930 5929 5931 5931 5934 5933 5938 5934 5935 5935 5936 5940 5936 5930 5936 5937 5936 5935 5935 5936 5936 5935 5933 5933 5932 5931 5930 5930 5930 5929 5929 5929 5930 5931 5934 5934 5934 5933 5933 5935 5936
5921 5926 5925 5927 5929 5929 5934 5932 5929 5934 5935 5938 5939 5934 5934 5930 5931 5933 5935 5933 5934 5935 5935 5935 5936 5935 5933 5932 5932 5931 5931 5931 5929 5929 5929 5930 5931 5933 5933 5935 5935 5935 5934 5933
5917 5920 5921 5922 5925 5929 5931 5935 5930 5935 5937 5938 5937 5936 5931 5935 5937 5933 5935 5931 5934 5935 5934 5934 5934 5936 5934 5933 5933 5932 5932 5931 5930 5929 5929 5929 5930 5933 5934 5935 5935 5935 5935 5932
5914 5915 5917 5918 5922 5928 5930 5933 5934 5934 5933 5934 5937 5936 5937 5936 5936 5928 5928 5930 5934 5936 5934 5936 5935 5935 5935 5933 5932 5933 5933 5932 5931 5929 5928 5928 5931 5931 5934 5934 5935 5936 5935 5932
5908 5911 5912 5915 5919 5921 5924 5926 5928 5932 5933 5934 5935 5932 5928 5934 5931 5926 5926 5929 5930 5934 5935 5935 5936 5935 5935 5933 5932 5933 5933 5933 5931 5930 5929 5928 5929 5930 5932 5933 5934 5933 5935 5932
5905 5906 5909 5911 5914 5917 5919 5922 5924 5929 5930 5934 5933 5933 5933 5929 5929 5928 5930 5931 5930 5932 5934 5934 5934 5934 5932 5932 5931 5932 5933 5932 5931 5929 5928 5928 5929 5930 5931 5931 5933 5934 5933 5931
5900 5905 5907 5910 5911 5914 5916 5919 5922 5924 5928 5931 5932 5932 5930 5928 5933 5934 5936 5936 5936 5933 5933 5934 5933 5933 5932 5929 5930 5930 5931 5931 5930 5929 5928 5928 5929 5929 5930 5930 5930 5930 5933 5929
5896 5900 5904 5905 5908 5909 5912 5914 5920 5921 5924 5928 5926 5927 5929 5930 5928 5928 5929 5930 5928 5931 5933 5933 5933 5932 5930 5929 5929 5929 5928 5929 5929 5928 5927 5927 5928 5929 5929 5930 5929 5930 5929 5925
5895 5898 5901 5903 5903 5907 5908 5913 5918 5918 5921 5927 5926 5926 5926 5925 5927 5927 5925 5927 5929 5930 5931 5933 5932 5930 5929 5928 5929 5927 5926 5927 5927 5926 5926 5928 5928 5928 5927 5927 5928 5927 5925 5925
5893 5897 5900 5900 5902 5905 5907 5908 5912 5917 5923 5925 5924 5926 5927 5925 5926 5923 5920 5924 5927 5922 5925 5929 5929 5927 5928 5928 5927 5926 5924 5925 5926 5927 5927 5927 5927 5926 5925 5925 5925 5925 5925 5924
5892 5895 5895 5898 5900 5900 5902 5907 5912 5916 5920 5924 5922 5923 5921 5923 5923 5919 5919 5921 5922 5924 5921 5925 5925 5923 5920 5923 5925 5925 5924 5924 5926 5926 5927 5926 5925 5924 5923 5922 5921 5921 5921 5921
5888 5892 5893 5895 5899 5898 5899 5903 5910 5915 5920 5923 5922 5923 5923 5923 5917 5917 5918 5920 5918 5921 5921 5923 5925 5925 5922 5919 5920 5923 5923 5923 5924 5924 5924 5923 5922 5921 5921 5921 5922 5922 5922 5920
5885 5888 5889 5893 5894 5897 5899 5902 5906 5912 5916 5916 5918 5914 5911 5916 5918 5919 5922 5914 5915 5921 5922 5924 5923 5923 5923 5921 5918 5918 5920 5922 5922 5922 5921 5921 5920 5920 5920 5921 5921 5920 5919 5919
5885 5886 5887 5890 5893 5895 5899 5903 5905 5909 5912 5911 5909 5911 5912 5914 5913 5916 5919 5919 5919 5919 5917 5918 5920 5919 5918 5918 5917 5915 5916 5917 5917 5917 5918 5919 5919 5918 5918 5918 5918 5917 5916 5915
5883 5885 5883 5888 5893 5897 5901 5904 5907 5909 5908 5908 5905 5905 5907 5909 5899 5910 5914 5915 5915 5916 5915 5913 5913 5912 5912 5913 5913 5912 5912 5911 5911 5912 5913 5914 5916 5915 5914 5913 5912 5914 5913 5911
5883 5883 5887 5889 5891 5894 5901 5904 5905 5907 5905 5906 5905 5907 5909 5906 5907 5904 5905 5910 5911 5910 5909 5908 5907 5907 5906 5906 5906 5907 5907 5908 5907 5906 5906 5907 5908 5909 5908 5906 5908 5908 5907 5906
5882 5882 5885 5885 5891 5895 5895 5898 5899 5903 5902 5902 5901 5902 5902 5901 5903 5904 5905 5906 5904 5905 5904 5903 5901 5901 5901 5903 5902 5902 5902 5902 5901 5901 5901 5901 5901 5902 5903 5903 5901 5900 5900 5900
5881 5885 5886 5886 5887 5891 5893 5894 5894 5894 5893 5894 5894 5893 5893 5898 5898 5901 5901 5900 5900 5900 5899 5898 5896 5896 5897 5896 5897 5897 5897 5897 5896 5895 5894 5894 5895 5895 5895 5895 5894 5892 5892 5892
5880 5884 5885 5885 5883 5883 5884 5887 5888 5890 5889 5890 5889 5891 5891 5894 5895 5894 5893 5895 5897 5895 5896 5895 5892 5891 5891 5891 5891 5891 5892 5892 5891 5890 5889 5889 5888 5888 5888 5887 5886 5885 5884 5882
5874 5877 5878 5881 5877 5878 5880 5882 5888 5890 5890 5888 5887 5885 5889 5889 5889 5887 5888 5890 5892 5891 5892 5890 5887 5886 5886 5886 5885 5885 5884 5885 5886 5885 5882 5881 5880 5879 5879 5878 5878 5875 5873 5872
5868 5872 5874 5875 5872 5874 5878 5878 5882 5883 5887 5884 5883 5884 5882 5885 5883 5882 5884 5887 5886 5884 5883 5882 5881 5880 5880 5880 5880 5880 5878 5877 5877 5878 5878 5875 5873 5873 5872 5871 5869 5866 5864 5864
5867 5865 5869 5872 5872 5872 5874 5876 5879 5883 5885 5879 5884 5882 5881 5882 5881 5880 5879 5880 5879 5877 5874 5876 5876 5874 5875 5874 5873 5873 5872 5870 5870 5869 5869 5868 5866 5864 5863 5862 5860 5858 5856 5854
5860 5855 5866 5871 5871 5871 5871 5873 5875 5875 5877 5881 5882 5880 5880 5878 5873 5870 5870 5868 5867 5868 5871 5872 5870 5869 5868 5867 5867 5865 5866 5864 5860 5861 5860 5859 5857 5857 5854 5852 5851 5848 5846 5845
5856 5858 5861 5861 5865 5867 5866 5871 5871 5873 5875 5873 5873 5872 5871 5871 5869 5866 5864 5863 5864 5866 5867 5866 5865 5864 5860 5860 5859 5858 5856 5856 5853 5851 5850 5849 5847 5845 5844 5842 5842 5839 5836 5834
5850 5852 5855 5859 5860 5860 5862 5863 5864 5867 5866 5868 5868 5866 5866 5865 5865 5863 5860 5859 5860 5861 5860 5859 5858 5855 5853 5854 5852 5849 5847 5846 5844 5842 5840 5838 5835 5833 5831 5830 5829 5827 5826 5823
Wind_Speed
14 11 8 8 13 10 16 20 17 16 8 9 8 10 9 7 12 15 18 15 15 14 16 15 12 11 10 9 11 9 5 6 8 8 5 2 2 0 1 3 7 1 5 6
18 8 9 10 11 14 14 18 12 21 2 7 1 15 13 19 24 18 14 18 15 7 11 14 14 11 11 8 8 9 8 7 9 7 5 4 2 3 2 2 4 3 3 7
18 13 16 13 11 10 12 15 26 19 27 15 2 14 19 20 21 18 5 16 10 7 12 13 14 12 11 10 7 6 7 5 6 6 6 5 4 5 2 1 2 4 4 7
20 18 18 17 8 9 15 9 21 8 20 11 5 8 17 13 12 23 18 19 11 6 7 10 13 12 8 9 8 6 8 6 2 1 1 4 5 4 2 2 1 8 8 6
17 18 18 16 14 14 9 15 14 14 24 5 1 9 13 12 14 23 15 7 11 6 5 5 8 8 7 5 7 7 8 8 5 3 3 5 4 4 2 3 5 11 13 11
18 18 20 20 16 21 17 24 24 22 11 12 6 12 17 11 14 20 4 7 17 13 8 8 5 8 6 2 4 4 5 6 4 5 6 4 3 5 2 5 3 10 12 7
16 17 17 18 21 22 20 18 18 22 8 1 14 18 28 3 2 4 10 12 23 18 11 11 12 8 7 3 3 4 3 1 0 3 4 3 2 5 5 3 2 4 4 11
15 13 14 12 15 16 17 16 15 11 4 15 19 14 21 8 15 13 17 19 22 13 13 12 15 8 4 4 3 3 6 5 4 4 4 4 2 2 2 3 4 2 4 12
7 9 13 18 14 17 16 12 13 13 14 17 21 10 8 8 19 16 17 13 16 14 14 13 14 6 2 2 2 1 5 10 8 6 6 4 5 4 2 5 5 3 6 15
16 10 7 17 19 13 20 13 8 23 20 10 12 11 9 14 16 17 16 15 13 12 13 15 10 6 2 2 4 4 4 13 11 7 6 5 5 7 7 6 6 7 11 13
22 16 8 16 17 10 21 22 17 12 10 6 17 17 13 17 19 22 24 25 15 14 15 9 7 6 2 3 2 4 5 10 14 9 6 5 7 7 7 5 6 8 8 10
21 20 12 21 15 11 25 26 18 16 13 17 18 19 10 13 19 24 24 22 16 15 10 3 7 10 13 8 6 1 2 6 14 12 10 9 8 5 3 5 7 7 6 7
14 20 14 14 15 19 23 26 23 13 11 11 11 14 16 18 18 24 29 14 12 6 7 8 8 5 10 15 13 5 5 6 11 13 14 15 12 12 10 9 11 13 12 11
27 14 14 17 22 9 16 22 17 16 16 18 18 25 27 25 24 18 17 11 6 13 16 16 12 12 13 15 17 15 9 8 12 17 19 20 19 16 15 14 12 13 16 17
23 11 10 24 21 16 10 13 22 21 15 14 19 20 29 29 27 22 9 13 14 17 20 18 16 15 16 16 15 17 16 13 14 16 18 23 23 21 19 18 17 13 15 16
21 11 12 19 14 15 7 6 7 11 21 12 17 19 19 27 16 5 6 13 15 17 20 20 20 19 17 16 15 16 15 17 18 17 15 12 21 23 23 23 21 14 13 14
19 5 12 6 11 11 15 12 16 11 12 20 20 15 20 26 29 15 12 16 18 19 22 24 23 15 12 14 14 12 13 12 15 17 19 17 16 23 27 29 25 21 20 17
19 12 6 1 8 15 13 16 14 16 20 23 27 26 30 36 31 29 18 16 16 22 26 22 18 13 12 12 13 14 15 16 17 17 17 22 23 24 24 28 26 22 27 30
25 12 13 12 18 20 22 21 21 18 19 25 27 30 37 38 34 25 17 9 12 19 19 15 17 15 14 16 15 14 13 14 17 19 20 17 17 20 23 23 26 29 29 29
16 14 16 16 20 26 20 26 16 15 23 22 24 27 30 23 10 14 14 14 11 13 15 18 18 21 21 19 21 19 16 14 14 14 16 17 19 21 21 22 25 28 28 28
28 21 21 20 23 22 10 14 17 18 15 19 19 24 19 16 18 23 17 22 21 19 18 17 19 21 23 24 23 23 24 19 16 16 18 19 19 21 22 23 25 27 30 31
31 32 25 24 24 19 17 21 11 19 18 18 21 22 24 23 25 36 27 27 25 23 21 17 19 21 20 22 24 24 25 26 24 21 21 23 25 25 25 25 27 29 31 32
30 34 34 33 31 31 25 18 8 18 22 19 20 24 24 31 33 33 27 27 25 21 22 20 21 24 22 22 21 23 26 30 29 30 30 28 28 30 31 30 31 31 32 32
31 18 21 26 34 34 26 29 31 17 27 28 28 27 29 31 36 38 34 34 29 25 21 20 23 26 26 27 26 26 24 25 31 28 29 29 29 29 31 32 33 34 35 34
25 27 24 27 24 27 31 24 19 25 23 29 31 28 26 25 27 32 36 35 31 29 27 25 25 26 31 30 30 30 30 27 29 33 32 32 34 34 33 34 35 36 37 37
22 23 23 19 23 25 21 18 15 17 25 25 25 26 26 27 27 30 34 36 35 31 29 28 28 31 34 31 31 32 32 31 31 32 34 35 36 37 37 37 38 39 39 40
Wind_Direction
243 248 262 252 239 126 293 342 330 342 295 43 46 335 306 137 12 32 21 18 33 42 27 23 21 25 27 43 52 53 76 77 85 86 85 55 19 78 181 202 227 203 79 338
246 244 239 246 232 140 281 282 302 311 202 168 121 280 2 7 1 345 53 37 26 46 48 39 43 37 32 44 57 61 70 102 109 112 115 110 105 43 48 214 242 92 4 338
244 238 239 232 244 179 175 287 286 340 327 19 77 296 344 351 342 330 60 31 31 45 70 45 50 55 41 45 50 64 78 88 116 128 129 118 99 97 123 125 95 314 331 360
241 238 248 239 249 264 171 160 293 292 276 306 293 326 335 330 271 304 3 64 72 87 95 70 24 60 65 52 55 63 63 51 26 100 135 133 138 128 161 194 263 285 292 312
240 231 237 235 221 270 233 168 266 268 281 52 290 309 310 259 302 318 357 350 36 348 23 87 35 18 52 76 71 75 66 57 31 356 280 248 200 203 196 225 300 293 286 310
233 233 225 234 233 216 225 201 219 212 261 278 306 264 271 287 325 328 353 337 331 346 307 327 349 347 16 89 112 101 89 62 34 11 351 329 261 254 243 219 245 254 298 321
234 238 242 231 228 234 233 239 231 218 192 96 277 270 309 178 108 310 319 316 305 307 297 304 314 335 334 333 159 186 169 128 39 334 338 330 77 140 160 212 256 275 315 357
216 225 261 271 248 242 238 235 229 199 206 261 282 301 317 305 301 261 253 264 281 280 295 299 305 314 293 261 162 194 196 202 231 280 288 278 306 207 256 313 319 332 307 4
147 298 309 296 265 231 226 209 185 206 221 254 303 302 296 231 247 263 285 289 197 210 278 284 291 270 233 15 15 7 205 201 205 243 273 244 263 286 329 360 10 100 4 19
165 187 217 261 282 230 218 181 221 206 219 215 261 260 226 248 233 273 288 295 249 244 262 271 264 236 201 6 1 340 261 201 197 215 233 255 286 296 299 314 14 24 19 21
175 171 152 257 277 284 217 198 185 152 189 259 279 281 283 280 267 270 279 306 300 284 234 283 286 284 243 241 1 352 319 207 201 217 231 256 280 301 319 306 332 338 349 357
195 183 190 248 292 290 194 206 183 197 216 244 276 298 273 267 253 264 277 315 315 260 343 1 331 324 328 331 3 16 352 234 210 227 233 243 257 264 284 283 275 306 313 321
197 198 199 219 247 272 201 185 172 172 201 230 243 278 254 250 262 270 295 314 304 308 307 298 296 281 303 310 308 319 279 227 225 233 242 246 249 258 256 269 304 295 294 297
176 188 226 210 206 232 180 166 177 188 214 262 258 247 234 240 254 232 300 296 276 246 269 266 271 268 270 276 286 293 291 249 237 244 244 251 259 256 268 276 286 301 300 306
167 192 231 205 194 199 217 214 183 197 216 272 253 239 248 243 238 236 277 309 275 271 279 282 279 278 284 277 273 278 277 272 261 263 261 257 259 263 254 263 277 278 285 293
188 113 72 183 197 165 151 126 188 255 235 248 274 281 282 264 250 4 213 298 292 286 284 290 290 293 294 289 279 273 276 275 277 280 280 268 251 254 268 270 275 262 277 288
196 167 117 134 154 128 180 200 208 180 242 236 273 283 267 282 302 282 245 264 268 279 293 292 295 298 293 295 297 284 278 276 274 277 278 273 258 257 255 265 283 267 255 284
197 197 163 245 228 189 179 185 228 222 238 240 245 257 259 263 267 283 306 269 256 279 289 292 290 292 293 302 292 288 278 277 275 279 270 263 267 264 267 272 275 270 268 282
210 212 170 219 251 238 236 206 194 206 216 222 239 255 263 274 285 272 267 323 285 287 291 298 302 301 295 287 290 293 286 280 278 276 279 279 267 254 260 270 265 267 276 276
184 224 251 255 271 267 214 200 182 210 241 251 259 261 266 296 282 297 327 309 297 309 303 288 288 290 288 281 283 289 295 298 291 288 285 279 275 273 271 272 271 272 273 273
195 201 216 219 252 263 271 272 227 224 214 247 260 280 292 300 290 298 310 314 301 297 284 291 288 286 282 280 279 284 289 286 284 289 292 292 292 292 291 288 287 285 282 282
203 212 206 215 244 254 240 261 238 211 191 243 249 264 292 293 287 288 285 294 299 293 298 305 298 295 293 282 275 274 276 283 287 287 283 283 287 287 288 290 289 289 286 285
218 214 214 215 230 241 262 271 188 221 242 223 249 255 258 272 267 271 286 289 294 298 307 309 298 290 295 289 283 278 279 281 279 283 284 281 279 281 283 285 285 286 287 290
206 211 221 232 238 251 280 274 268 272 279 273 275 266 265 266 272 280 287 295 306 307 305 297 290 292 291 288 289 288 283 282 284 282 282 283 282 282 282 283 284 286 288 289
224 242 243 245 247 245 258 271 266 267 276 273 268 268 268 270 273 277 282 288 291 295 293 286 283 285 283 284 285 284 283 282 280 284 282 281 282 281 280 281 282 283 285 286
249 250 249 251 262 278 293 291 274 253 251 257 265 272 278 279 279 277 277 282 287 289 288 288 287 281 278 284 283 284 285 286 282 280 280 280 280 280 280 279 279 281 283 286